[[{"header":{"parameterUnit":"m.s-1","parameterCategory":1,"la1":30.2991,"la2":30.254,"lo1":-89.0895,"lo2":-89.0444,"dy":0.0017,"dx":0.0017,"nx":28,"ny":28,"refTime":"2025-09-19T09:00:00:Z","depth":0,"parameterNumber":2,"parameterNumberName":"U-component_of_WINDS"},"data":[0,0,0,0,0,0,0,0,0,0,0,0,0,0,0,0,0,0,0,0,0,0,0,0,0,0,0,0,0,0,0,0,0,0,0,0,0,0,0,0,0,0,0,0,0,0,0,0,0,0,0,0,0,0,0,0,0,0,0.1818,0.1818,0,0.1822,0.1822,0.1822,0.1856,0.1856,0.1857,0.1858,0.186,0.186,0.1859,0,0,0,0,0,0,0,0,0,0,0,0,0,0.1838,0.1838,0.1818,0.1818,0.1818,0.1822,0.1822,0.1822,0.1855,0.1856,0.1857,0.1858,0.186,0.186,0.1859,0,0,0,0,0,0,0,0,0,0,0,0,0,0.1834,0.1837,0.1818,0.1835,0.1837,0.1822,0.1822,0.1822,0.1855,0.1856,0.1858,0.1859,0.1861,0.186,0.1859,0.1826,0,0,0.1855,0.1855,0,0,0,0,0,0,0,0,0.1834,0.1833,0.1832,0.1834,0.1836,0.1839,0.183,0.1823,0.1855,0.1848,0.1858,0.186,0.1852,0.1852,0.185,0.1826,0.1827,0.1855,0.1854,0.1854,0.1854,0,0,0,0,0,0,0,0.1835,0.1833,0.1819,0.1832,0.1834,0.1842,0.1843,0.1829,0.1843,0.1849,0.1851,0.1851,0.1853,0.1851,0.185,0.1827,0.1855,0.1854,0.1854,0.1853,0.1778,0.1776,0,0,0,0,0,0,0.1833,0.1833,0.1819,0.1819,0.1838,0.1841,0.1842,0.1837,0.1843,0.1845,0.185,0.1853,0.1852,0.1851,0.185,0.1813,0.1854,0.1853,0.1852,0.1779,0.1777,0.1776,0,0,0,0,0,0,0.1833,0.1831,0.1819,0.1827,0.1826,0.1839,0.1833,0.1836,0.1834,0.1844,0.1847,0.1845,0.1853,0.1852,0.1832,0.1814,0.1852,0.1851,0.178,0.1778,0.1776,0.1738,0,0,0,0,0,0,0.1833,0.1831,0.1819,0.1827,0.1826,0.1801,0.1832,0.1835,0.1832,0.1836,0.184,0.1842,0.1854,0.1834,0.1831,0.1813,0.1851,0.1782,0.178,0.1777,0.1741,0.1735,0.173,0,0,0,0,0,0.1834,0.1808,0.1818,0.1816,0.1811,0.18,0.1799,0.1814,0.183,0.1818,0.1825,0.1842,0.1816,0.1831,0.1829,0.181,0.1783,0.178,0.1777,0.1744,0.1736,0.173,0,0,0,0,0,0,0.1797,0.1809,0.1821,0.1796,0.1797,0.1806,0.1791,0.1805,0.1801,0.1804,0.1822,0.1823,0.1801,0.1803,0.182,0.1779,0.1803,0.1799,0.1778,0.1771,0.1766,0.1765,0.185,0,0,0,0,0,0.1786,0.1776,0.1787,0.1764,0.1764,0.1777,0.1773,0.1784,0.1785,0.1786,0.1791,0.1791,0.1783,0.1777,0.1771,0.1742,0.1743,0.1728,0.1722,0.1717,0.1714,0.1699,0.1692,0.1766,0.1766,0.1766,0,0,0.1762,0.1768,0.1761,0.1757,0.1759,0.1748,0.1777,0.1765,0.1757,0.1784,0.1766,0.177,0.1771,0.1747,0.1736,0.1748,0.1694,0.1714,0.171,0.1709,0.1695,0.1688,0.1682,0.1764,0.1764,0.1764,0,0,0.1715,0.1718,0.17,0.1701,0.1704,0.1713,0.1709,0.1716,0.172,0.1702,0.1722,0.1713,0.1699,0.1699,0.1697,0.1651,0.1666,0.1648,0.1618,0.1604,0.1598,0.1593,0.1576,0.157,0.1644,0.1644,0.1644,0,0.1685,0.1671,0.1688,0.1674,0.1672,0.1697,0.1678,0.1679,0.1679,0.1676,0.169,0.1673,0.1676,0.1652,0.1641,0.1639,0.1634,0.1647,0.1597,0.1593,0.1588,0.1572,0.1566,0.1642,0.1642,0.1643,0.1643,0,0.1635,0.1624,0.1609,0.1609,0.1605,0.1589,0.1603,0.1597,0.1609,0.1617,0.1599,0.1603,0.1598,0.1593,0.1604,0.1571,0.1578,0.1594,0.1618,0.1578,0.1564,0.1558,0.1639,0.164,0.164,0.1641,0,0,0.1562,0.1574,0.1568,0.1568,0.1574,0.1566,0.1551,0.1546,0.154,0.154,0.1527,0.1515,0.1531,0.1529,0.154,0.1527,0.149,0.1545,0.1546,0.1535,0.1454,0.1441,0.1434,0.1501,0.15,0.1499,0.1454,0,0.1516,0.1492,0.1508,0.148,0.1471,0.1495,0.1482,0.1483,0.149,0.1483,0.1491,0.1482,0.1503,0.1501,0.149,0.1497,0.1474,0.1501,0.1489,0.1488,0.1487,0.1426,0.1413,0.137,0.1448,0.1447,0.1446,0,0.1459,0.1457,0.1429,0.1437,0.1434,0.1422,0.1419,0.1412,0.1415,0.1421,0.1419,0.1434,0.1419,0.1443,0.1424,0.1441,0.1437,0.144,0.1439,0.1438,0.1464,0.1423,0.1357,0.135,0.1438,0.1438,0.1439,0,0.1409,0.1399,0.1382,0.1381,0.139,0.1381,0.1384,0.1388,0.1385,0.1383,0.138,0.1376,0.1374,0.137,0.1383,0.1399,0.1361,0.1387,0.1365,0.1365,0.1356,0.1356,0.1287,0.1354,0.1354,0.1354,0.1354,0,0.1356,0.1338,0.1359,0.1348,0.1329,0.1347,0.1327,0.1332,0.1336,0.1326,0.1347,0.1337,0.1355,0.1347,0.1357,0.1339,0.1338,0.1342,0.1345,0.134,0.1339,0.1337,0.134,0.1352,0.1353,0.1353,0.1353,0,0.1296,0.131,0.1292,0.1302,0.1305,0.129,0.1298,0.1288,0.1297,0.1284,0.1282,0.1296,0.1288,0.1301,0.1294,0.1301,0.1276,0.1283,0.1275,0.1277,0.1255,0.1257,0.1182,0.1173,0.1246,0.1245,0.1245,0,0.1261,0.1248,0.1257,0.1252,0.1255,0.1247,0.1244,0.1261,0.1257,0.1259,0.1249,0.1243,0.1238,0.1224,0.1233,0.1228,0.1235,0.1209,0.1234,0.123,0.1234,0.1235,0.1233,0.1204,0.1203,0.1202,0.1202,0,0.1197,0.1205,0.12,0.1197,0.1193,0.1192,0.1192,0.1187,0.1205,0.12,0.1192,0.1189,0.1182,0.1176,0.1173,0.1176,0.1191,0.1194,0.1189,0.1183,0.1179,0.118,0.126,0.1195,0.1196,0.1196,0.1197,0.1197,0.1148,0.1138,0.1143,0.1137,0.1139,0.1139,0.113,0.1138,0.1132,0.1129,0.114,0.1129,0.1133,0.1131,0.1132,0.1124,0.1135,0.1128,0.1126,0.1123,0.112,0.1181,0.1124,0.1124,0.1124,0.1124,0.1124,0,0.1085,0.109,0.1084,0.1084,0.1079,0.1096,0.1097,0.1092,0.1083,0.1085,0.1081,0.1072,0.1066,0.1075,0.107,0.1062,0.1069,0.106,0.106,0.1061,0.111,0.1115,0.1054,0.1054,0.1054,0.1054,0.1054,0.1054,0.1051,0.1035,0.1043,0.1028,0.1033,0.1023,0.1023,0.1022,0.1024,0.1014,0.1009,0.1015,0.102,0.1016,0.1011,0.1014,0.1011,0.0999,0.1004,0.105,0.1057,0.1064,0.1068,0.0999,0.0999,0.0956,0.0955,0.0955]},{"header":{"parameterUnit":"m.s-1","parameterCategory":1,"la1":30.2991,"la2":30.254,"lo1":-89.0895,"lo2":-89.0444,"dy":0.0017,"dx":0.0017,"nx":28,"ny":28,"refTime":"2025-09-19T09:00:00:Z","depth":0,"parameterNumber":3,"parameterNumberName":"V-component_of_WINDS"},"data":[0,0,0,0,0,0,0,0,0,0,0,0,0,0,0,0,0,0,0,0,0,0,0,0,0,0,0,0,0,0,0,0,0,0,0,0,0,0,0,0,0,0,0,0,0,0,0,0,0,0,0,0,0,0,0,0,0,0,-2.0239,-2.0239,0,-2.0256,-2.0256,-2.0256,-2.0229,-2.0228,-2.0227,-2.0226,-2.0242,-2.0243,-2.0245,0,0,0,0,0,0,0,0,0,0,0,0,0,-2.0183,-2.0184,-2.0239,-2.0239,-2.0239,-2.0256,-2.0256,-2.0256,-2.0229,-2.0228,-2.0227,-2.0226,-2.0242,-2.0243,-2.0245,0,0,0,0,0,0,0,0,0,0,0,0,0,-2.0204,-2.0185,-2.0239,-2.0228,-2.0227,-2.0256,-2.0256,-2.0256,-2.0229,-2.0228,-2.0227,-2.0225,-2.0241,-2.0243,-2.0245,-2.0285,0,0,-2.0251,-2.0252,0,0,0,0,0,0,0,0,-2.0203,-2.0206,-2.0229,-2.0229,-2.0228,-2.0239,-2.0242,-2.0266,-2.023,-2.0228,-2.0226,-2.0225,-2.0242,-2.0244,-2.025,-2.0285,-2.0286,-2.0251,-2.0252,-2.0253,-2.0253,0,0,0,0,0,0,0,-2.0202,-2.0206,-2.0245,-2.023,-2.0229,-2.0222,-2.0224,-2.0246,-2.0243,-2.0228,-2.0227,-2.0229,-2.0241,-2.0248,-2.025,-2.0286,-2.0251,-2.0253,-2.0254,-2.0255,-2.0358,-2.0359,0,0,0,0,0,0,-2.0202,-2.0205,-2.0245,-2.0246,-2.0212,-2.0224,-2.0226,-2.0237,-2.0242,-2.0242,-2.023,-2.0228,-2.0246,-2.0248,-2.0251,-2.03,-2.0253,-2.0255,-2.0256,-2.0356,-2.0358,-2.036,0,0,0,0,0,0,-2.0201,-2.0206,-2.0244,-2.0225,-2.0229,-2.0227,-2.0239,-2.0238,-2.0245,-2.0244,-2.0243,-2.0238,-2.0245,-2.0248,-2.0277,-2.03,-2.0256,-2.0257,-2.0354,-2.0357,-2.0359,-2.0397,0,0,0,0,0,0,-2.0199,-2.0205,-2.022,-2.0225,-2.023,-2.0271,-2.024,-2.0239,-2.0248,-2.0245,-2.0251,-2.025,-2.0244,-2.0274,-2.0279,-2.0301,-2.0259,-2.0352,-2.0355,-2.0358,-2.0393,-2.04,-2.0406,0,0,0,0,0,-2.0197,-2.0229,-2.0221,-2.0226,-2.0249,-2.0272,-2.0275,-2.0267,-2.025,-2.0265,-2.0265,-2.025,-2.0296,-2.0278,-2.0283,-2.0306,-2.0351,-2.0355,-2.0358,-2.0391,-2.0399,-2.0405,0,0,0,0,0,0,-2.0226,-2.023,-2.0221,-2.0255,-2.0264,-2.0267,-2.0286,-2.0275,-2.0288,-2.0285,-2.0274,-2.0275,-2.0307,-2.0309,-2.0288,-2.0346,-2.0321,-2.0325,-2.0344,-2.0351,-2.0357,-2.0357,-2.026,0,0,0,0,0,-2.0236,-2.0255,-2.0257,-2.0287,-2.0292,-2.0289,-2.0298,-2.0292,-2.03,-2.0303,-2.0305,-2.0313,-2.0329,-2.034,-2.0355,-2.0393,-2.0395,-2.0412,-2.0418,-2.0423,-2.0428,-2.045,-2.0458,-2.0372,-2.0372,-2.0371,0,0,-2.0258,-2.0262,-2.0274,-2.0293,-2.0299,-2.0319,-2.0292,-2.0313,-2.0328,-2.0306,-2.0334,-2.0336,-2.0344,-2.0379,-2.0394,-2.0382,-2.0452,-2.0428,-2.0432,-2.0433,-2.0455,-2.0463,-2.047,-2.0374,-2.0374,-2.0373,0,0,-2.0308,-2.0312,-2.0339,-2.0346,-2.0356,-2.0353,-2.036,-2.0366,-2.0367,-2.0395,-2.038,-2.0397,-2.0425,-2.0432,-2.044,-2.0495,-2.0482,-2.05,-2.0532,-2.0555,-2.0561,-2.0567,-2.0589,-2.0597,-2.0504,-2.0504,-2.0504,0,-2.0333,-2.0363,-2.0354,-2.0378,-2.0388,-2.037,-2.0398,-2.0404,-2.0418,-2.0425,-2.041,-2.0447,-2.0451,-2.0488,-2.0502,-2.0508,-2.0516,-2.05,-2.0561,-2.0567,-2.0573,-2.0593,-2.0601,-2.0506,-2.0506,-2.0506,-2.0506,0,-2.0395,-2.0416,-2.0436,-2.0452,-2.0464,-2.0489,-2.0485,-2.0498,-2.0491,-2.049,-2.052,-2.0525,-2.0542,-2.055,-2.0542,-2.0587,-2.0579,-2.0563,-2.0538,-2.0583,-2.0603,-2.061,-2.051,-2.0509,-2.0508,-2.0508,0,0,-2.0463,-2.0475,-2.0483,-2.0491,-2.0501,-2.0517,-2.0542,-2.0559,-2.0571,-2.0581,-2.0603,-2.0628,-2.0615,-2.0623,-2.0616,-2.0636,-2.0682,-2.0618,-2.0618,-2.0631,-2.0734,-2.0747,-2.0756,-2.0673,-2.0675,-2.0676,-2.0734,0,-2.0514,-2.0559,-2.0553,-2.0596,-2.0616,-2.06,-2.0623,-2.0631,-2.0632,-2.0649,-2.0649,-2.0668,-2.0648,-2.0653,-2.0671,-2.0672,-2.0703,-2.0668,-2.0694,-2.0695,-2.0695,-2.0766,-2.0779,-2.0834,-2.0741,-2.0742,-2.0743,0,-2.058,-2.0595,-2.0641,-2.065,-2.0658,-2.0678,-2.0695,-2.0711,-2.0721,-2.0721,-2.0731,-2.0722,-2.0748,-2.0721,-2.0758,-2.0734,-2.0745,-2.0747,-2.0749,-2.0752,-2.0723,-2.0773,-2.085,-2.086,-2.0754,-2.0753,-2.0753,0,-2.0628,-2.0659,-2.0691,-2.0698,-2.0708,-2.0724,-2.0729,-2.0737,-2.0749,-2.0763,-2.0771,-2.0788,-2.0797,-2.0811,-2.0806,-2.0787,-2.0844,-2.0817,-2.0845,-2.0846,-2.0859,-2.0859,-2.0942,-2.0863,-2.0863,-2.0863,-2.0862,0,-2.0687,-2.0716,-2.0713,-2.0733,-2.0765,-2.0758,-2.079,-2.0793,-2.0802,-2.0822,-2.0808,-2.0828,-2.082,-2.0839,-2.0835,-2.0867,-2.0871,-2.0872,-2.0871,-2.0874,-2.0874,-2.0882,-2.0879,-2.0865,-2.0864,-2.0864,-2.0863,0,-2.0746,-2.0745,-2.0779,-2.0788,-2.079,-2.0814,-2.0821,-2.084,-2.084,-2.0867,-2.0872,-2.0872,-2.0894,-2.0891,-2.0914,-2.0912,-2.0953,-2.0946,-2.095,-2.0949,-2.0979,-2.0977,-2.1071,-2.1083,-2.0995,-2.0996,-2.0996,0,-2.0785,-2.0807,-2.0819,-2.0832,-2.0839,-2.086,-2.0873,-2.0867,-2.088,-2.0895,-2.0912,-2.0933,-2.095,-2.0986,-2.0988,-2.1007,-2.1001,-2.1033,-2.1004,-2.1008,-2.1004,-2.1004,-2.1007,-2.1039,-2.104,-2.1041,-2.1042,0,-2.0854,-2.0853,-2.0872,-2.0892,-2.0907,-2.0922,-2.0935,-2.0946,-2.0942,-2.0958,-2.0981,-2.0994,-2.102,-2.1041,-2.1059,-2.1064,-2.1053,-2.1051,-2.1059,-2.1063,-2.1066,-2.1067,-2.0968,-2.1049,-2.1048,-2.1048,-2.1047,-2.1047,-2.0906,-2.0926,-2.0938,-2.096,-2.097,-2.0983,-2.1002,-2.1005,-2.1025,-2.1046,-2.1041,-2.1068,-2.1079,-2.1102,-2.1109,-2.113,-2.1119,-2.1129,-2.1133,-2.1136,-2.1141,-2.1061,-2.1133,-2.1133,-2.1133,-2.1132,-2.1132,0,-2.0977,-2.0984,-2.1004,-2.1024,-2.1042,-2.103,-2.1045,-2.1061,-2.1085,-2.1096,-2.1114,-2.1141,-2.1163,-2.1167,-2.1187,-2.1204,-2.1199,-2.1209,-2.1209,-2.1211,-2.1149,-2.1141,-2.1213,-2.1213,-2.1213,-2.1213,-2.1213,-2.1213,-2.1016,-2.105,-2.1051,-2.109,-2.1097,-2.1124,-2.1134,-2.1146,-2.1156,-2.1188,-2.1206,-2.1209,-2.1218,-2.124,-2.1259,-2.126,-2.1269,-2.1282,-2.1281,-2.1223,-2.1215,-2.1207,-2.12,-2.1283,-2.1283,-2.1341,-2.1342,-2.1342]}]]